When you browse on this site, cookies collect data to enhance your experience and personalize the content and advertising you see.
Visit our Privacy Policy to learn more. By continuing to use the site, you agree to this use of cookies and data.
  • In Austria
  • List of Countries
  • For 7 days
  • Water Temperature
  • Weather Map
  • News
  • Weather Widgets
  • user-avatar
    Login

    Hourly Weather Kozani

    Today, 25 January, Saturday

    Time Temperature Precipitation Wind Pressure Humidity
    00:00 +3°C° 0 mm 1 mps 711 mmHg 84%
    01:00 +3°C° 0 mm 1 mps 710 mmHg 85%
    02:00 +3°C° 0 mm 1 mps 710 mmHg 85%
    03:00 +3°C° 0 mm 1 mps 710 mmHg 85%
    04:00 +3°C° 0 mm 1 mps 710 mmHg 85%
    05:00 +3°C° 0 mm 1 mps 710 mmHg 85%
    06:00 +3°C° 0 mm 1 mps 709 mmHg 85%
    07:00 +3°C° 0 mm 1 mps 709 mmHg 85%
    08:00 +5°C° 0 mm 1 mps 710 mmHg 78%
    09:00 +6°C° 0 mm 1 mps 710 mmHg 71%
    10:00 +8°C° 0 mm 1 mps 710 mmHg 64%
    11:00 +9°C° 0 mm 1 mps 710 mmHg 61%
    12:00 +10°C° 0 mm 1 mps 710 mmHg 58%
    13:00 +12°C° 0 mm 1 mps 710 mmHg 55%
    14:00 +11°C° 0 mm 1 mps 709 mmHg 58%
    15:00 +11°C° 0 mm 1 mps 709 mmHg 62%
    16:00 +10°C° 0 mm 1 mps 709 mmHg 66%
    17:00 +9°C° 0 mm 1 mps 709 mmHg 70%
    18:00 +8°C° 0 mm 1 mps 709 mmHg 74%
    19:00 +7°C° 0 mm 1 mps 709 mmHg 77%
    20:00 +7°C° 0 mm 1 mps 709 mmHg 79%
    21:00 +7°C° 0 mm 1 mps 709 mmHg 80%
    22:00 +6°C° 0 mm 1 mps 709 mmHg 81%
    23:00 +6°C° 0 mm 1 mps 709 mmHg 82%

    Tomorrow, 26 January, Sunday

    Time Temperature Precipitation Wind Pressure Humidity
    00:00 +6°C° 0 mm 1 mps 709 mmHg 83%
    01:00 +5°C° 0 mm 1 mps 709 mmHg 84%
    02:00 +5°C° 0 mm 1 mps 708 mmHg 85%
    03:00 +5°C° 0 mm 1 mps 708 mmHg 85%
    04:00 +5°C° 0 mm 1 mps 708 mmHg 86%
    05:00 +5°C° 0 mm 1 mps 708 mmHg 85%
    06:00 +4°C° 0 mm 0 mps 708 mmHg 85%
    07:00 +4°C° 0 mm 0 mps 708 mmHg 85%
    08:00 +5°C° 0 mm 0 mps 708 mmHg 81%
    09:00 +6°C° 0 mm 0 mps 708 mmHg 76%
    10:00 +8°C° 0 mm 0 mps 709 mmHg 72%
    11:00 +8°C° 0 mm 0 mps 708 mmHg 69%
    12:00 +10°C° 0 mm 1 mps 708 mmHg 66%
    13:00 +11°C° 0 mm 1 mps 708 mmHg 63%
    14:00 +11°C° 0 mm 1 mps 707 mmHg 65%
    15:00 +10°C° 0 mm 1 mps 707 mmHg 68%
    16:00 +10°C° 0 mm 1 mps 707 mmHg 71%
    17:00 +9°C° 0 mm 1 mps 707 mmHg 75%
    18:00 +8°C° 0 mm 1 mps 706 mmHg 78%
    19:00 +7°C° 0 mm 1 mps 706 mmHg 82%
    20:00 +7°C° 0 mm 1 mps 706 mmHg 84%
    21:00 +6°C° 0 mm 0 mps 706 mmHg 86%
    22:00 +5°C° 0 mm 0 mps 706 mmHg 88%
    23:00 +5°C° 0 mm 0 mps 705 mmHg 88%

    Day after tomorrow, 27 January, Monday

    Time Temperature Precipitation Wind Pressure Humidity
    00:00 +6°C° 0 mm 1 mps 705 mmHg 89%
    01:00 +6°C° 0 mm 1 mps 705 mmHg 89%
    02:00 +6°C° 0 mm 1 mps 704 mmHg 89%
    03:00 +6°C° 0 mm 1 mps 704 mmHg 90%
    04:00 +6°C° 0 mm 1 mps 704 mmHg 90%
    05:00 +6°C° 0.8 mm 1 mps 703 mmHg 92%
    06:00 +5°C° 0.8 mm 0 mps 703 mmHg 94%
    07:00 +5°C° 0.8 mm 0 mps 703 mmHg 96%
    08:00 +6°C° 1.5 mm 1 mps 703 mmHg 96%
    09:00 +6°C° 1.5 mm 1 mps 703 mmHg 96%
    10:00 +7°C° 1.5 mm 1 mps 703 mmHg 96%
    11:00 +7°C° 0.6 mm 1 mps 702 mmHg 96%
    12:00 +7°C° 0.6 mm 1 mps 702 mmHg 96%
    13:00 +7°C° 0.6 mm 1 mps 701 mmHg 96%
    14:00 +7°C° 1.2 mm 1 mps 701 mmHg 96%
    15:00 +7°C° 1.2 mm 1 mps 701 mmHg 96%
    16:00 +6°C° 1.2 mm 2 mps 701 mmHg 96%
    17:00 +5°C° 0.4 mm 2 mps 701 mmHg 95%
    18:00 +5°C° 0.4 mm 2 mps 701 mmHg 95%
    19:00 +5°C° 0.4 mm 2 mps 701 mmHg 94%
    20:00 +5°C° 0 mm 2 mps 701 mmHg 93%
    21:00 +4°C° 0 mm 2 mps 702 mmHg 93%
    22:00 +4°C° 0 mm 2 mps 702 mmHg 93%
    23:00 +4°C° 0 mm 2 mps 701 mmHg 92%

    28 January, Tuesday

    Time Temperature Precipitation Wind Pressure Humidity
    00:00 +3°C° 0 mm 2 mps 701 mmHg 92%
    01:00 +3°C° 0 mm 2 mps 701 mmHg 91%
    02:00 +3°C° 0 mm 2 mps 701 mmHg 90%
    03:00 +3°C° 0 mm 2 mps 701 mmHg 89%
    04:00 +3°C° 0 mm 2 mps 701 mmHg 88%
    05:00 +3°C° 0 mm 2 mps 702 mmHg 88%
    06:00 +4°C° 0 mm 1 mps 702 mmHg 88%
    07:00 +3°C° 0 mm 1 mps 702 mmHg 87%
    08:00 +5°C° 0 mm 1 mps 702 mmHg 81%
    09:00 +7°C° 0 mm 1 mps 703 mmHg 75%
    10:00 +9°C° 0 mm 1 mps 703 mmHg 69%
    11:00 +9°C° 0 mm 2 mps 703 mmHg 64%
    12:00 +10°C° 0 mm 2 mps 702 mmHg 59%
    13:00 +12°C° 0 mm 2 mps 702 mmHg 54%
    14:00 +10°C° 0 mm 2 mps 702 mmHg 57%
    15:00 +10°C° 0 mm 2 mps 702 mmHg 61%
    16:00 +10°C° 0 mm 1 mps 702 mmHg 64%
    17:00 +9°C° 0 mm 1 mps 702 mmHg 68%
    18:00 +8°C° 0 mm 1 mps 702 mmHg 71%
    19:00 +7°C° 0 mm 1 mps 702 mmHg 75%
    20:00 +6°C° 0 mm 2 mps 702 mmHg 77%
    21:00 +5°C° 0 mm 2 mps 702 mmHg 80%
    22:00 +5°C° 0 mm 2 mps 702 mmHg 82%
    23:00 +6°C° 0 mm 1 mps 702 mmHg 83%

    29 January, Wednesday

    Time Temperature Precipitation Wind Pressure Humidity
    00:00 +5°C° 0 mm 1 mps 702 mmHg 83%
    01:00 +5°C° 0 mm 1 mps 701 mmHg 84%
    02:00 +5°C° 0 mm 1 mps 701 mmHg 84%
    03:00 +5°C° 0 mm 1 mps 701 mmHg 84%
    04:00 +5°C° 0 mm 1 mps 701 mmHg 84%
    05:00 +5°C° 0 mm 1 mps 701 mmHg 85%
    06:00 +5°C° 0 mm 1 mps 701 mmHg 85%
    07:00 +5°C° 0 mm 1 mps 701 mmHg 86%
    08:00 +6°C° 0 mm 1 mps 701 mmHg 81%
    09:00 +7°C° 0 mm 2 mps 701 mmHg 77%
    10:00 +9°C° 0 mm 2 mps 701 mmHg 72%
    11:00 +10°C° 0 mm 2 mps 701 mmHg 70%
    12:00 +10°C° 0 mm 2 mps 701 mmHg 68%
    13:00 +12°C° 0 mm 2 mps 700 mmHg 66%
    14:00 +12°C° 0 mm 2 mps 700 mmHg 68%
    15:00 +12°C° 0 mm 1 mps 701 mmHg 71%
    16:00 +11°C° 0 mm 1 mps 701 mmHg 73%
    17:00 +10°C° 0 mm 1 mps 701 mmHg 76%
    18:00 +9°C° 0 mm 1 mps 701 mmHg 79%
    19:00 +8°C° 0 mm 1 mps 701 mmHg 83%
    20:00 +7°C° 0 mm 2 mps 701 mmHg 83%
    21:00 +6°C° 0 mm 2 mps 701 mmHg 84%
    22:00 +6°C° 0 mm 2 mps 701 mmHg 84%
    23:00 +5°C° 0 mm 2 mps 701 mmHg 84%

    30 January, Thursday

    Time Temperature Precipitation Wind Pressure Humidity
    00:00 +6°C° 0 mm 1 mps 700 mmHg 85%
    01:00 +6°C° 0 mm 1 mps 700 mmHg 85%
    02:00 +5°C° 0 mm 1 mps 700 mmHg 85%
    03:00 +5°C° 0 mm 1 mps 699 mmHg 85%
    04:00 +5°C° 0 mm 1 mps 699 mmHg 85%
    05:00 +5°C° 0 mm 1 mps 699 mmHg 86%
    06:00 +4°C° 0 mm 2 mps 699 mmHg 87%
    07:00 +3°C° 0 mm 2 mps 699 mmHg 87%
    08:00 +5°C° 0 mm 2 mps 699 mmHg 82%
    09:00 +6°C° 0 mm 2 mps 700 mmHg 76%
    10:00 +8°C° 0 mm 3 mps 700 mmHg 70%
    11:00 +7°C° 0.1 mm 4 mps 700 mmHg 68%
    12:00 +7°C° 0.1 mm 6 mps 701 mmHg 66%
    13:00 +6°C° 0.1 mm 7 mps 701 mmHg 63%
    14:00 +5°C° 0.1 mm 6 mps 701 mmHg 65%
    15:00 +3°C° 0.1 mm 5 mps 701 mmHg 67%
    16:00 +3°C° 0.1 mm 4 mps 701 mmHg 69%
    17:00 +2°C° 0 mm 3 mps 702 mmHg 69%
    18:00 +1°C° 0 mm 3 mps 703 mmHg 69%
    19:00 +2°C° 0 mm 2 mps 704 mmHg 69%
    20:00 +1°C° 0 mm 2 mps 705 mmHg 68%
    21:00 +2°C° 0 mm 1 mps 705 mmHg 68%
    22:00 +2°C° 0 mm 1 mps 706 mmHg 68%
    23:00 +1°C° 0 mm 1 mps 706 mmHg 66%
    Show more